FW8459 Weather Reports


time (UTC)temp
F
wind
direction
speed
knots
gust
knots
rain 1hr
in
rain 24hr
in
rain mn
in
humidity
%
barometer
mb
20260903200833 37 318 0.0 0.0 0.00 0.00 0.00 99 1022.9
20260903200329 37 282 0.0 0.0 0.00 0.00 0.00 98 1022.7
20260903195824 37 281 0.0 0.0 0.00 0.00 0.00 98 1022.7
20260903195320 37 279 0.0 0.0 0.00 0.00 0.00 98 1022.6
20260903194815 36 284 0.0 0.0 0.00 0.00 0.00 98 1022.7
20260903194310 36 286 0.0 0.0 0.00 0.00 0.00 98 1022.3
20260903193806 37 286 0.0 0.0 0.00 0.00 0.00 98 1022.5
20260903193302 36 293 0.0 0.0 0.00 0.00 0.00 98 1022.5
20260903192757 37 286 0.0 0.0 0.00 0.00 0.00 98 1022.4
20260903192253 37 286 0.0 0.0 0.00 0.00 0.00 98 1022.5
20260903191748 37 288 0.0 0.0 0.00 0.00 0.00 98 1022.4
20260903191238 37 293 0.0 0.0 0.00 0.00 0.00 98 1022.3
20260903190733 38 286 0.0 0.0 0.00 0.00 0.00 98 1022.1
20260903190232 38 281 0.0 0.0 0.00 0.00 0.00 97 1022.2
20260903185728 38 284 0.0 0.0 0.00 0.00 0.00 98 1022.2
20260903185222 39 284 0.0 0.0 0.00 0.00 0.00 98 1022.2
20260903184719 38 290 0.0 0.0 0.00 0.00 0.00 97 1022.1
20260903184215 38 295 0.0 0.0 0.00 0.00 0.00 97 1022.0
20260903183714 39 293 0.0 0.0 0.00 0.00 0.00 98 1021.8
20260903183209 38 303 0.0 0.0 0.00 0.00 0.00 98 1022.0
20260903182707 38 292 0.0 0.0 0.00 0.00 0.00 97 1021.6
20260903182203 38 293 0.0 0.0 0.00 0.00 0.00 97 1021.8
20260903181702 39 285 0.0 0.0 0.00 0.00 0.00 97 1021.5
20260903181156 39 284 0.0 0.0 0.00 0.00 0.00 97 1021.4
20260903180652 39 278 0.0 0.0 0.00 0.00 0.00 96 1021.4
20260903180151 39 287 0.0 0.0 0.00 0.00 0.00 96 1021.3
20260903175645 39 282 0.0 0.0 0.00 0.00 0.00 96 1021.3
20260903175144 39 291 0.0 0.0 0.00 0.00 0.00 96 1021.3
20260903174639 39 291 0.0 0.0 0.00 0.00 0.00 96 1021.5
20260903174134 39 291 0.0 0.0 0.00 0.00 0.00 96 1021.4
20260903173629 40 293 0.0 0.0 0.00 0.00 0.00 96 1021.6
20260903173126 40 289 0.0 0.0 0.00 0.00 0.00 96 1021.2
20260903172625 40 296 0.0 0.0 0.00 0.00 0.00 96 1021.5
20260903172121 41 295 0.0 0.0 0.00 0.00 0.00 96 1021.3
20260903171620 41 302 0.0 0.0 0.00 0.00 0.00 96 1021.4
20260903171117 41 290 0.0 0.0 0.00 0.00 0.00 95 1021.5
20260903170615 41 275 0.0 0.0 0.00 0.00 0.00 95 1021.4
20260903170111 41 258 0.0 0.0 0.00 0.00 0.00 95 1021.4
20260903165608 41 255 0.0 0.0 0.00 0.00 0.00 95 1021.2
20260903165104 41 264 0.0 0.9 0.00 0.00 0.00 95 1021.5
20260903164559 41 280 0.0 0.0 0.00 0.00 0.00 94 1021.5
20260903164055 42 287 0.0 0.0 0.00 0.00 0.00 94 1021.4
20260903163555 42 278 0.0 0.0 0.00 0.00 0.00 94 1021.5
20260903163051 42 271 0.0 0.0 0.00 0.00 0.00 94 1021.8
20260903162547 42 267 0.0 0.0 0.00 0.00 0.00 93 1021.8
20260903162043 43 252 0.0 0.9 0.00 0.00 0.00 93 1021.6
20260903161538 43 271 0.0 0.0 0.00 0.00 0.00 92 1021.9
20260903161034 43 282 0.0 0.0 0.00 0.00 0.00 92 1021.9
20260903160532 44 283 0.0 0.0 0.00 0.00 0.00 92 1021.9
20260903160027 44 246 0.0 0.9 0.00 0.00 0.00 92 1022.1
20260903155526 44 268 0.0 0.0 0.00 0.00 0.00 91 1021.9
20260903155022 44 240 0.0 0.0 0.00 0.00 0.00 91 1022.1
20260903154518 45 273 0.0 0.0 0.00 0.00 0.00 90 1022.2
20260903154014 45 263 0.0 0.0 0.00 0.00 0.00 89 1022.5
20260903153509 46 273 0.0 0.0 0.00 0.00 0.00 89 1022.3
20260903153005 46 285 0.0 0.0 0.00 0.00 0.00 88 1022.4
20260903152500 46 270 0.0 0.9 0.00 0.00 0.00 87 1022.5
20260903151957 47 277 0.0 0.0 0.00 0.00 0.00 87 1022.3
20260903151450 48 274 0.0 0.0 0.00 0.00 0.00 86 1022.4
20260903150946 48 268 0.0 0.0 0.00 0.00 0.00 86 1022.4
20260903150445 48 270 0.0 0.0 0.00 0.00 0.00 85 1022.3
20260903145940 49 279 0.0 0.0 0.00 0.00 0.00 85 1022.4
20260903145435 49 309 0.0 0.0 0.00 0.00 0.00 84 1022.3
20260903144930 50 310 0.0 0.0 0.00 0.00 0.00 84 1022.2
20260903144429 49 254 0.0 0.9 0.00 0.00 0.00 85 1022.3
20260903143925 49 271 0.0 0.0 0.00 0.00 0.00 85 1022.4
20260903143422 49 287 0.0 0.0 0.00 0.00 0.00 84 1022.6
20260903142917 50 286 0.0 0.0 0.00 0.00 0.00 84 1022.4
20260903142413 50 285 0.0 0.0 0.00 0.00 0.00 83 1022.3
20260903141909 50 274 0.0 0.0 0.00 0.00 0.00 83 1022.1
20260903141404 50 258 0.0 0.0 0.00 0.00 0.00 83 1022.3
20260903140900 50 270 0.0 0.0 0.00 0.00 0.00 82 1022.1
20260903140355 50 282 0.0 0.0 0.00 0.00 0.00 82 1022.3
20260903135850 51 267 0.0 0.9 0.00 0.00 0.00 82 1022.3
20260903135346 51 284 0.0 0.0 0.00 0.00 0.00 82 1022.4
20260903134844 51 263 0.0 0.9 0.00 0.00 0.00 82 1022.2
20260903134340 51 268 0.0 0.0 0.00 0.00 0.00 82 1022.3
20260903133837 51 297 0.0 0.0 0.00 0.00 0.00 82 1022.3
20260903133334 51 236 0.9 0.9 0.00 0.00 0.00 82 1022.5
20260903132834 50 226 0.9 1.7 0.00 0.00 0.00 83 1022.5
20260903132330 50 274 0.0 0.0 0.00 0.00 0.00 83 1022.7
20260903131824 50 290 0.0 0.0 0.00 0.00 0.00 84 1022.4
20260903131324 50 288 0.0 0.0 0.00 0.00 0.00 84 1022.3
20260903130823 50 275 0.0 0.0 0.00 0.00 0.00 84 1022.4
20260903130318 50 233 0.9 0.9 0.00 0.00 0.00 85 1022.4
20260903125817 50 294 0.9 0.9 0.00 0.00 0.00 86 1022.4
20260903125312 49 264 0.0 0.9 0.00 0.00 0.00 87 1022.4
20260903124811 49 259 0.0 0.0 0.00 0.00 0.00 87 1022.4
20260903124307 49 291 0.0 0.0 0.00 0.00 0.00 87 1022.2
20260903123806 49 277 0.0 0.0 0.00 0.00 0.00 87 1022.1
20260903123306 48 243 0.9 0.9 0.00 0.00 0.00 88 1022.1
20260903122804 48 255 0.0 0.9 0.00 0.00 0.00 88 1022.2
20260903122259 48 245 0.9 0.9 0.00 0.00 0.00 88 1021.9
20260903121757 48 248 0.9 0.9 0.00 0.00 0.00 88 1022.1
20260903121253 48 242 0.9 0.9 0.00 0.00 0.00 88 1021.9
20260903120749 48 228 0.9 0.9 0.00 0.00 0.00 89 1021.8
20260903120242 48 289 0.0 0.0 0.00 0.00 0.00 89 1022.1
20260903115740 48 270 0.0 0.0 0.00 0.07 0.07 89 1022.0
20260903115236 48 267 0.0 0.0 0.00 0.07 0.07 88 1021.8
20260903114730 48 281 0.0 0.0 0.00 0.07 0.07 88 1021.8
20260903114226 48 293 0.0 0.0 0.00 0.07 0.07 87 1021.5
20260903113721 49 270 0.0 0.0 0.00 0.07 0.07 87 1021.5
20260903113217 49 267 0.0 0.0 0.00 0.07 0.07 87 1021.4
20260903112713 49 281 0.0 0.0 0.00 0.07 0.07 86 1021.4
20260903112209 50 280 0.0 0.0 0.00 0.07 0.07 85 1021.2
20260903111707 50 296 0.0 0.0 0.00 0.07 0.07 85 1021.5
20260903111203 50 276 0.0 0.0 0.00 0.07 0.07 84 1021.3
20260903110659 51 276 0.0 0.0 0.00 0.07 0.07 84 1021.4
20260903110154 51 258 0.0 0.0 0.00 0.07 0.07 84 1021.0
20260903105654 51 254 0.0 0.9 0.00 0.07 0.07 83 1021.1
20260903105149 51 274 0.0 0.0 0.00 0.07 0.07 83 1021.1
20260903104648 51 264 0.0 0.0 0.00 0.07 0.07 83 1021.1
20260903104144 52 249 0.9 0.9 0.00 0.07 0.07 83 1020.9
20260903103639 52 138 0.9 0.9 0.00 0.07 0.07 83 1021.0
20260903103136 52 274 0.0 0.0 0.00 0.07 0.07 83 1021.0
20260903102631 52 284 0.0 0.0 0.00 0.07 0.07 83 1020.8
20260903102129 52 129 0.0 0.0 0.00 0.07 0.07 84 1020.8
20260903101624 52 249 0.0 0.9 0.00 0.07 0.07 84 1020.8
20260903101119 52 275 0.0 0.0 0.00 0.07 0.07 85 1020.6
20260903100614 51 187 0.0 0.0 0.00 0.07 0.07 86 1020.5
20260903100113 51 242 0.9 0.9 0.00 0.07 0.07 86 1020.4
20260903095611 51 296 0.0 0.0 0.00 0.07 0.07 85 1020.3
20260903095111 51 246 0.0 0.0 0.00 0.07 0.07 85 1020.4
20260903094606 51 228 0.0 0.0 0.00 0.07 0.07 85 1019.9
20260903094101 51 212 0.9 0.9 0.00 0.07 0.07 85 1020.0
20260903093556 51 282 0.0 0.0 0.00 0.07 0.07 84 1019.9
20260903093052 51 267 0.9 0.9 0.00 0.07 0.07 84 1019.7
20260903092551 51 278 0.0 0.0 0.00 0.07 0.07 84 1019.7
20260903092046 51 284 0.0 0.0 0.00 0.07 0.07 83 1019.6
20260903091544 51 124 0.9 0.9 0.00 0.07 0.07 83 1019.5
20260903091039 52 277 0.0 0.9 0.00 0.07 0.07 82 1019.6
20260903090535 52 342 0.0 0.0 0.00 0.07 0.07 82 1019.6
20260903090033 52 199 1.7 2.6 0.00 0.07 0.07 82 1019.3
20260903085532 53 304 0.0 0.0 0.00 0.07 0.07 81 1019.3
20260903085028 53 190 1.7 2.6 0.00 0.07 0.07 81 1019.2
20260903084526 53 225 0.0 0.9 0.00 0.07 0.07 80 1019.2
20260903084021 53 234 0.9 0.9 0.00 0.07 0.07 80 1019.2
20260903083517 53 252 0.9 0.9 0.00 0.07 0.07 79 1019.4
20260903083016 54 190 1.7 2.6 0.00 0.07 0.07 79 1019.4
20260903082510 54 301 1.7 1.7 0.00 0.07 0.07 79 1019.2
20260903082006 54 221 0.9 0.9 0.00 0.07 0.07 78 1019.0
20260903081501 54 225 1.7 1.7 0.00 0.07 0.07 78 1019.0
20260903080957 54 242 0.9 0.9 0.00 0.07 0.07 78 1019.0
20260903080453 55 200 0.0 0.9 0.00 0.07 0.07 77 1018.7
20260903075949 55 197 0.9 0.9 0.00 0.07 0.07 77 1018.6
20260903075444 55 221 1.7 1.7 0.00 0.07 0.07 77 1018.4
20260903074939 55 267 2.6 2.6 0.00 0.07 0.07 76 1018.7
20260903074438 56 163 0.9 0.9 0.00 0.07 0.07 75 1018.4
20260903073934 56 208 2.6 4.3 0.00 0.07 0.07 75 1018.6
20260903073428 56 22 0.9 0.9 0.00 0.07 0.07 74 1018.6
20260903072924 57 206 0.9 0.9 0.00 0.07 0.07 73 1018.4
20260903072420 57 192 2.6 2.6 0.00 0.07 0.07 73 1018.3
20260903071917 57 216 0.9 0.9 0.00 0.07 0.07 72 1018.2
20260903071413 58 193 0.9 1.7 0.00 0.07 0.07 71 1018.0
20260903070909 58 222 1.7 1.7 0.00 0.07 0.07 71 1017.9
20260903070403 59 201 1.7 1.7 0.00 0.07 0.07 70 1018.1
20260903065858 59 238 2.6 2.6 0.00 0.07 0.07 69 1017.6
20260903065357 59 221 2.6 2.6 0.00 0.07 0.07 68 1017.8
20260903064856 59 233 0.9 0.9 0.00 0.07 0.07 69 1017.7
20260903064352 60 178 2.6 4.3 0.00 0.07 0.07 68 1017.7
20260903063848 60 53 2.6 4.3 0.00 0.07 0.07 67 1017.8
20260903063343 60 245 2.6 2.6 0.00 0.07 0.07 66 1017.7
20260903062838 60 114 0.9 0.9 0.00 0.07 0.07 68 1017.5
20260903062338 60 178 1.7 2.6 0.00 0.07 0.07 68 1017.4
20260903061835 60 168 1.7 2.6 0.00 0.07 0.07 66 1017.6
20260903061333 60 238 0.9 1.7 0.00 0.07 0.07 67 1017.2
20260903060830 61 218 3.5 4.3 0.00 0.07 0.07 66 1017.1
20260903060329 61 199 3.5 4.3 0.00 0.07 0.07 65 1017.2
20260903055827 61 242 2.6 5.2 0.00 0.07 0.07 65 1017.1
20260903055325 62 327 2.6 2.6 0.00 0.07 0.07 64 1017.1
20260903054821 62 220 2.6 4.3 0.00 0.07 0.07 63 1017.1
20260903054320 62 272 3.5 6.1 0.00 0.07 0.07 63 1017.0
20260903053817 62 198 3.5 5.2 0.00 0.07 0.07 63 1016.8
20260903053312 63 241 2.6 2.6 0.00 0.07 0.07 63 1016.8
20260903052808 63 271 1.7 1.7 0.00 0.07 0.07 64 1017.1
20260903052306 63 257 4.3 7.0 0.00 0.07 0.07 62 1017.1
20260903051759 63 227 0.9 1.7 0.00 0.07 0.07 63 1016.7
20260903051254 63 287 2.6 4.3 0.00 0.07 0.07 62 1017.1
20260903050749 63 234 3.5 5.2 0.00 0.07 0.07 61 1017.0
20260903050248 64 226 3.5 4.3 0.00 0.07 0.07 60 1017.0
20260903045743 64 194 4.3 5.2 0.00 0.07 0.07 60 1017.0
20260903045239 64 230 2.6 2.6 0.00 0.07 0.07 61 1016.8
20260903044735 64 297 1.7 5.2 0.00 0.07 0.07 61 1016.6
20260903044230 64 222 1.7 2.6 0.00 0.07 0.07 62 1017.1
20260903043727 64 219 5.2 6.1 0.00 0.07 0.07 61 1017.0
20260903043227 64 249 2.6 4.3 0.00 0.07 0.07 61 1016.6
20260903042726 65 190 2.6 4.3 0.00 0.07 0.07 62 1016.4
20260903042221 65 218 3.5 4.3 0.00 0.07 0.07 62 1016.7
20260903041717 65 240 2.6 2.6 0.00 0.07 0.07 61 1016.3
20260903041213 64 171 4.3 4.3 0.00 0.07 0.07 62 1016.6
20260903040713 64 181 5.2 8.7 0.00 0.07 0.07 62 1016.3
20260903040208 65 208 4.3 5.2 0.00 0.07 0.07 61 1016.4
20260903035704 65 207 4.3 5.2 0.00 0.07 0.07 60 1016.6
20260903035200 64 215 2.6 4.3 0.00 0.07 0.07 62 1016.8
20260903034659 65 186 2.6 2.6 0.00 0.07 0.07 61 1016.6
20260903034154 64 207 0.0 0.9 0.00 0.07 0.07 64 1016.4
20260903033650 63 196 4.3 6.1 0.00 0.07 0.07 65 1016.6
20260903033149 62 293 1.7 2.6 0.00 0.07 0.07 65 1016.6
20260903032645 63 227 2.6 4.3 0.00 0.07 0.07 65 1016.6
20260903032140 64 234 3.5 4.3 0.00 0.07 0.07 63 1016.6
20260903031636 65 243 1.7 1.7 0.00 0.07 0.07 62 1016.7
20260903031130 66 222 4.3 6.1 0.00 0.07 0.07 60 1016.6
20260903030626 64 203 1.7 2.6 0.00 0.07 0.07 63 1016.6
20260903030122 65 74 4.3 6.1 0.00 0.07 0.07 60 1016.5
20260903025616 64 247 3.5 6.1 0.00 0.07 0.07 62 1016.6
20260903025112 64 257 4.3 5.2 0.00 0.07 0.07 64 1016.8
20260903024607 66 237 3.5 5.2 0.00 0.07 0.07 63 1016.8
20260903024101 66 196 3.5 4.3 0.00 0.07 0.07 62 1016.7
20260903023557 65 199 3.5 5.2 0.00 0.07 0.07 64 1016.6
20260903023052 64 195 3.5 4.3 0.00 0.07 0.07 65 1016.6
20260903022551 64 219 1.7 1.7 0.00 0.07 0.07 65 1016.5
20260903022050 63 248 2.6 5.2 0.00 0.07 0.07 67 1016.5
20260903021545 63 236 6.1 7.8 0.00 0.07 0.07 67 1016.7
20260903021039 64 194 4.3 6.1 0.00 0.07 0.07 66 1016.6
20260903020536 63 189 2.6 2.6 0.00 0.07 0.07 67 1016.4
20260903020035 62 234 2.6 2.6 0.00 0.07 0.07 72 1016.5
20260903015531 63 234 1.7 1.7 0.00 0.07 0.07 72 1016.5
20260903015026 64 264 2.6 4.3 0.00 0.07 0.07 67 1016.3
20260903014525 64 142 4.3 5.2 0.00 0.07 0.07 66 1016.4
20260903014020 63 207 3.5 4.3 0.00 0.07 0.07 69 1016.5
20260903013519 64 207 3.5 5.2 0.00 0.07 0.07 67 1016.6
20260903013014 64 188 5.2 6.1 0.00 0.07 0.07 67 1016.4
20260903012514 64 242 2.6 2.6 0.00 0.07 0.07 68 1016.5
20260903012013 64 171 3.5 4.3 0.00 0.07 0.07 68 1016.2
20260903011507 64 237 5.2 7.8 0.00 0.07 0.07 68 1016.1
20260903011002 64 235 2.6 4.3 0.00 0.07 0.07 69 1016.3
20260903010457 64 210 2.6 5.2 0.00 0.07 0.07 70 1016.2
20260903005955 64 201 1.7 1.7 0.00 0.07 0.07 70 1016.4
20260903005450 64 181 2.6 4.3 0.00 0.07 0.07 71 1016.3
20260903004946 63 259 4.3 5.2 0.00 0.07 0.07 73 1016.1
20260903004441 62 182 1.7 2.6 0.00 0.07 0.07 76 1016.3
20260903003937 61 291 3.5 5.2 0.00 0.07 0.07 77 1016.1
20260903003437 62 242 4.3 6.1 0.00 0.07 0.07 74 1016.2
20260903002932 64 186 1.7 1.7 0.00 0.07 0.07 71 1016.2
20260903002427 63 29 2.6 2.6 0.00 0.07 0.07 73 1016.2
20260903001927 62 203 4.3 6.1 0.00 0.07 0.07 74 1016.3
20260903001426 64 221 5.2 7.8 0.00 0.07 0.07 71 1016.1
20260903000926 63 207 2.6 4.3 0.00 0.07 0.07 72 1016.1
20260903000421 64 183 4.3 6.1 0.00 0.07 0.07 71 1016.1
20260902235920 62 270 3.5 5.2 0.00 0.07 0.07 73 1016.1
20260902235415 65 230 4.3 5.2 0.00 0.07 0.07 69 1015.8
20260902234915 66 262 3.5 5.2 0.00 0.07 0.07 66 1015.6
20260902234410 66 179 2.6 4.3 0.00 0.07 0.07 67 1015.5
20260902233909 66 224 5.2 7.0 0.00 0.07 0.07 66 1015.3
20260902233403 66 260 4.3 6.1 0.00 0.07 0.07 64 1015.0
20260902232902 67 245 5.2 6.1 0.00 0.07 0.07 61 1015.0
20260902232357 66 195 3.5 6.1 0.00 0.07 0.07 59 1014.9
20260902231856 66 148 3.5 5.2 0.00 0.07 0.07 61 1014.8
20260902231352 67 277 1.7 2.6 0.00 0.07 0.07 61 1014.5
20260902230846 66 231 1.7 1.7 0.00 0.07 0.07 63 1014.7
20260902230346 66 213 2.6 5.2 0.00 0.07 0.07 63 1014.5
20260902225840 66 205 1.7 2.6 0.00 0.07 0.07 63 1014.5
20260902225335 66 216 1.7 4.3 0.00 0.07 0.07 63 1014.6
20260902224833 65 248 2.6 2.6 0.00 0.07 0.07 65 1014.6
20260902224328 65 229 1.7 1.7 0.00 0.07 0.07 67 1014.6
20260902223825 64 200 0.9 1.7 0.00 0.07 0.07 67 1014.6
20260902223320 64 227 3.5 5.2 0.00 0.07 0.07 67 1014.6
20260902222819 64 149 1.7 1.7 0.00 0.07 0.07 68 1014.2
20260902222318 64 237 1.7 2.6 0.00 0.07 0.07 67 1014.3
20260902221813 63 163 1.7 4.3 0.00 0.07 0.07 68 1014.4
20260902221312 63 51 2.6 2.6 0.00 0.07 0.07 69 1014.4
20260902220808 63 185 0.9 0.9 0.00 0.07 0.07 70 1014.3
20260902220307 62 199 0.9 0.9 0.00 0.07 0.07 71 1014.1
20260902215803 61 163 1.7 1.7 0.00 0.07 0.07 73 1013.9
20260902215258 60 122 0.9 1.7 0.00 0.07 0.07 78 1013.9
20260902214754 58 95 2.6 4.3 0.00 0.07 0.07 83 1013.9
20260902214253 56 228 2.6 4.3 0.00 0.07 0.07 89 1013.6
20260902213748 54 83 0.9 1.7 0.00 0.07 0.07 97 1013.9
20260902213249 53 229 2.6 4.3 0.00 0.07 0.07 99 1013.6
20260902212747 52 164 1.7 1.7 0.00 0.07 0.07 99 1013.6
20260902212244 52 259 0.0 0.9 0.00 0.07 0.07 99 1013.5
20260902211740 52 209 0.0 0.0 0.00 0.07 0.07 99 1013.7
20260902211236 52 218 0.0 0.9 0.00 0.07 0.07 99 1013.5
20260902210736 52 194 0.9 0.9 0.00 0.07 0.07 99 1013.2
20260902210231 52 249 0.9 0.9 0.00 0.07 0.07 99 1013.2
20260902205729 52 112 0.0 0.9 0.00 0.07 0.07 99 1012.9
20260902205224 51 298 0.0 0.9 0.00 0.07 0.07 99 1013.1
20260902204719 51 127 0.0 0.9 0.00 0.07 0.07 99 1012.8
20260902204215 51 207 0.9 0.9 0.00 0.07 0.07 99 1012.8
20260902203709 51 293 1.7 2.6 0.00 0.07 0.07 99 1013.0
20260902203204 51 250 0.9 0.9 0.00 0.07 0.07 99 1012.8
20260902202659 51 270 0.0 0.9 0.00 0.07 0.07 99 1013.0
20260902202155 51 304 0.0 0.9 0.00 0.07 0.07 99 1012.8
20260902201652 50 299 0.0 0.0 0.00 0.07 0.07 99 1012.8
20260902201150 50 287 0.0 0.0 0.00 0.07 0.07 99 1012.5